WMT2384 LROP-LTAI

Flight info

Callsign WMT2384
Flight time 1h 42m
Altitude 39000
Route IDARU DCT NONQE DCT MAXOV DCT MATEL L620 RIXEN UL620 IST UN616 OVACI UT69 BABSA
Aircraft A20N/M-SDE2E3FGHIRWXY/LB1

Departure

Time 2026-05-04 18:10
Airport Bucharest Henri Coandă International Airport (LROP)

Arrival

Time 2026-05-04 19:52
Airport Antalya International Airport (LTAI)
Time Latitude Longitude Altitude Speed Heading
2026-05-04 17:35 44.57144 26.08112 321 ft 0 kts 173°
2026-05-04 17:59 44.57149 26.08111 323 ft 1 kts 173°
2026-05-04 18:00 44.57156 26.08110 323 ft 1 kts 173°
2026-05-04 18:00 44.57164 26.08108 323 ft 1 kts 173°
2026-05-04 18:00 44.57172 26.08107 323 ft 1 kts 173°
2026-05-04 18:00 44.57179 26.08106 323 ft 1 kts 173°
2026-05-04 18:01 44.57188 26.08104 322 ft 2 kts 173°
2026-05-04 18:01 44.57203 26.08102 323 ft 3 kts 173°
2026-05-04 18:01 44.57209 26.08101 323 ft 0 kts 173°
2026-05-04 18:05 44.57205 26.08102 323 ft 1 kts 170°
2026-05-04 18:06 44.57202 26.08114 322 ft 2 kts 95°
2026-05-04 18:06 44.57200 26.08148 323 ft 5 kts 88°
2026-05-04 18:06 44.57205 26.08202 323 ft 6 kts 83°
2026-05-04 18:07 44.57209 26.08251 320 ft 5 kts 82°
2026-05-04 18:07 44.57215 26.08299 323 ft 5 kts 76°
2026-05-04 18:07 44.57224 26.08348 321 ft 5 kts 80°
2026-05-04 18:07 44.57229 26.08399 324 ft 5 kts 84°
2026-05-04 18:08 44.57233 26.08453 324 ft 6 kts 83°
2026-05-04 18:08 44.57260 26.08497 321 ft 7 kts 10°
2026-05-04 18:08 44.57317 26.08492 323 ft 9 kts 354°
2026-05-04 18:08 44.57391 26.08482 323 ft 12 kts 354°
2026-05-04 18:09 44.57584 26.08454 324 ft 15 kts 354°
2026-05-04 18:09 44.57671 26.08522 327 ft 11 kts 84°
2026-05-04 18:10 44.57704 26.08976 323 ft 86 kts 84°
2026-05-04 18:10 44.57792 26.10119 326 ft 148 kts 83°
2026-05-04 18:10 44.57917 26.11661 732 ft 157 kts 83°
2026-05-04 18:10 44.58048 26.13185 1361 ft 160 kts 82°
2026-05-04 18:11 44.58182 26.14876 1692 ft 191 kts 83°
2026-05-04 18:11 44.58326 26.16893 1919 ft 227 kts 83°
2026-05-04 18:11 44.58495 26.19247 2302 ft 254 kts 83°
2026-05-04 18:11 44.58677 26.21743 3130 ft 258 kts 82°
2026-05-04 18:12 44.58860 26.24251 4079 ft 259 kts 82°
2026-05-04 18:12 44.59044 26.26764 5077 ft 259 kts 81°
2026-05-04 18:12 44.59229 26.29275 6116 ft 259 kts 79°
2026-05-04 18:12 44.59414 26.31792 7139 ft 260 kts 79°
2026-05-04 18:13 44.59600 26.34317 8124 ft 261 kts 79°
2026-05-04 18:13 44.59677 26.36885 9087 ft 268 kts 89°
2026-05-04 18:13 44.58381 26.41989 10639 ft 299 kts 114°
2026-05-04 18:14 44.57208 26.44541 10971 ft 325 kts 120°
2026-05-04 18:14 44.55804 26.47175 11318 ft 348 kts 123°
2026-05-04 18:14 44.54261 26.49886 11907 ft 360 kts 124°
2026-05-04 18:15 44.51064 26.55443 13475 ft 371 kts 123°
2026-05-04 18:15 44.47857 26.61175 15028 ft 378 kts 123°
2026-05-04 18:15 44.46247 26.64104 15781 ft 382 kts 123°
2026-05-04 18:16 44.44623 26.67074 16525 ft 386 kts 123°
2026-05-04 18:16 44.42985 26.70075 17278 ft 390 kts 123°
2026-05-04 18:16 44.41329 26.73107 17995 ft 394 kts 123°
2026-05-04 18:17 44.37957 26.79267 19200 ft 404 kts 123°
2026-05-04 18:17 44.36237 26.82402 19761 ft 409 kts 124°
2026-05-04 18:17 44.32749 26.88742 20854 ft 419 kts 124°
2026-05-04 18:18 44.30961 26.91985 21402 ft 424 kts 124°
2026-05-04 18:18 44.29157 26.95253 21953 ft 428 kts 125°
2026-05-04 18:18 44.27327 26.98564 22497 ft 432 kts 125°
2026-05-04 18:18 44.25485 27.01895 23012 ft 437 kts 125°
2026-05-04 18:19 44.21732 27.08670 24004 ft 445 kts 126°
2026-05-04 18:19 44.19829 27.12098 24470 ft 449 kts 126°
2026-05-04 18:19 44.17908 27.15556 24952 ft 452 kts 126°
2026-05-04 18:20 44.15977 27.19027 25413 ft 455 kts 126°
2026-05-04 18:20 44.14033 27.22518 25847 ft 458 kts 126°
2026-05-04 18:20 44.12079 27.26022 26275 ft 461 kts 126°
2026-05-04 18:20 44.10103 27.29561 26699 ft 463 kts 126°
2026-05-04 18:21 44.08125 27.33099 27159 ft 465 kts 126°
2026-05-04 18:21 44.06132 27.36661 27609 ft 467 kts 126°
2026-05-04 18:21 44.04131 27.40233 28015 ft 469 kts 126°
2026-05-04 18:21 44.02116 27.43824 28406 ft 472 kts 126°
2026-05-04 18:22 44.00092 27.47429 28829 ft 474 kts 126°
2026-05-04 18:22 43.97999 27.50952 29407 ft 473 kts 131°
2026-05-04 18:22 43.95608 27.54071 30022 ft 472 kts 140°
2026-05-04 18:22 43.92888 27.56620 30536 ft 471 kts 148°
2026-05-04 18:23 43.90021 27.58806 31032 ft 469 kts 151°
2026-05-04 18:23 43.87104 27.60843 31468 ft 469 kts 153°
2026-05-04 18:23 43.84165 27.62799 31887 ft 468 kts 153°
2026-05-04 18:23 43.81219 27.64722 32308 ft 468 kts 153°
2026-05-04 18:24 43.78284 27.66635 32727 ft 467 kts 153°
2026-05-04 18:24 43.75351 27.68555 33125 ft 466 kts 153°
2026-05-04 18:24 43.72421 27.70485 33534 ft 465 kts 153°
2026-05-04 18:24 43.69506 27.72414 33955 ft 464 kts 152°
2026-05-04 18:25 43.66645 27.74311 34446 ft 459 kts 152°
2026-05-04 18:25 43.63773 27.76218 34775 ft 458 kts 152°
2026-05-04 18:25 43.60894 27.78130 34995 ft 460 kts 152°
2026-05-04 18:25 43.58012 27.80043 35224 ft 461 kts 152°
2026-05-04 18:26 43.55118 27.81961 35486 ft 462 kts 152°
2026-05-04 18:26 43.52221 27.83878 35741 ft 462 kts 153°
2026-05-04 18:26 43.49320 27.85795 35987 ft 463 kts 153°
2026-05-04 18:26 43.46411 27.87714 36232 ft 463 kts 153°
2026-05-04 18:27 43.43503 27.89631 36472 ft 464 kts 152°
2026-05-04 18:27 43.40590 27.91549 36677 ft 465 kts 153°
2026-05-04 18:27 43.37673 27.93467 36890 ft 466 kts 153°
2026-05-04 18:27 43.34741 27.95394 37101 ft 466 kts 153°
2026-05-04 18:28 43.31814 27.97315 37333 ft 467 kts 153°
2026-05-04 18:28 43.28888 27.99233 37556 ft 467 kts 153°
2026-05-04 18:28 43.25955 28.01154 37771 ft 467 kts 153°
2026-05-04 18:28 43.23015 28.03077 37983 ft 468 kts 153°
2026-05-04 18:29 43.20074 28.04999 38218 ft 468 kts 153°
2026-05-04 18:29 43.17137 28.06916 38437 ft 468 kts 153°
2026-05-04 18:29 43.14198 28.08832 38642 ft 468 kts 153°
2026-05-04 18:29 43.11262 28.10745 38798 ft 468 kts 153°
2026-05-04 18:30 43.05374 28.14575 39051 ft 470 kts 153°
2026-05-04 18:30 43.02420 28.16494 39066 ft 470 kts 153°
2026-05-04 18:31 42.96514 28.20322 39064 ft 469 kts 153°
2026-05-04 18:31 42.90614 28.24139 39061 ft 469 kts 153°
2026-05-04 18:32 42.84711 28.27950 39056 ft 469 kts 153°
2026-05-04 18:32 42.78808 28.31752 39056 ft 469 kts 153°
2026-05-04 18:33 42.72940 28.35523 39060 ft 469 kts 153°
2026-05-04 18:33 42.67034 28.39312 39052 ft 470 kts 153°
2026-05-04 18:34 42.61117 28.43100 39049 ft 470 kts 153°
2026-05-04 18:34 42.55203 28.46877 39050 ft 470 kts 153°
2026-05-04 18:35 42.49282 28.50651 39049 ft 470 kts 153°
2026-05-04 18:35 42.43361 28.54417 39046 ft 470 kts 154°
2026-05-04 18:36 42.37428 28.58183 39044 ft 471 kts 154°
2026-05-04 18:36 42.31487 28.61946 39045 ft 471 kts 154°
2026-05-04 18:37 42.25548 28.65700 39043 ft 471 kts 154°
2026-05-04 18:37 42.19607 28.69447 39042 ft 472 kts 154°
2026-05-04 18:38 42.13651 28.73196 39045 ft 472 kts 154°
2026-05-04 18:38 42.07525 28.76157 39045 ft 473 kts 169°
2026-05-04 18:39 42.00977 28.77000 39043 ft 474 kts 177°
2026-05-04 18:39 41.94370 28.77276 39043 ft 475 kts 179°
2026-05-04 18:40 41.87757 28.77461 39047 ft 475 kts 179°
2026-05-04 18:40 41.81146 28.77679 39042 ft 475 kts 179°
2026-05-04 18:41 41.74539 28.77926 39044 ft 475 kts 179°
2026-05-04 18:41 41.67928 28.78185 39049 ft 475 kts 179°
2026-05-04 18:42 41.61312 28.78446 39045 ft 476 kts 179°
2026-05-04 18:42 41.54689 28.78705 39049 ft 476 kts 179°
2026-05-04 18:43 41.48073 28.78962 39047 ft 475 kts 179°
2026-05-04 18:43 41.41463 28.79219 39045 ft 476 kts 178°
2026-05-04 18:44 41.34833 28.79477 39055 ft 477 kts 178°
2026-05-04 18:44 41.28187 28.79735 39048 ft 478 kts 178°
2026-05-04 18:45 41.21585 28.79993 39053 ft 478 kts 178°
2026-05-04 18:45 41.14919 28.80271 39049 ft 481 kts 178°
2026-05-04 18:46 41.08225 28.80557 39046 ft 481 kts 178°
2026-05-04 18:46 41.01528 28.80842 39047 ft 482 kts 178°
2026-05-04 18:47 40.94866 28.81583 39051 ft 481 kts 169°
2026-05-04 18:47 40.88304 28.83337 39048 ft 481 kts 167°
2026-05-04 18:48 40.81777 28.85288 39045 ft 481 kts 167°
2026-05-04 18:48 40.75261 28.87258 39045 ft 480 kts 167°
2026-05-04 18:49 40.68746 28.89203 39047 ft 479 kts 167°
2026-05-04 18:49 40.62235 28.91129 39047 ft 479 kts 167°
2026-05-04 18:50 40.55735 28.93044 39049 ft 478 kts 168°
2026-05-04 18:50 40.49619 28.94843 39051 ft 478 kts 168°
2026-05-04 18:51 40.43823 28.96544 39055 ft 478 kts 167°
2026-05-04 18:51 40.37368 28.98437 39051 ft 479 kts 168°
2026-05-04 18:52 40.30850 29.00344 39053 ft 480 kts 168°
2026-05-04 18:52 40.24331 29.02247 39056 ft 480 kts 168°
2026-05-04 18:53 40.17816 29.04146 39058 ft 480 kts 168°
2026-05-04 18:53 40.11268 29.06050 39055 ft 483 kts 168°
2026-05-04 18:54 40.04697 29.07958 39059 ft 484 kts 168°
2026-05-04 18:54 39.98119 29.09863 39062 ft 484 kts 167°
2026-05-04 18:55 39.91534 29.11767 39057 ft 486 kts 167°
2026-05-04 18:55 39.81617 29.14628 39059 ft 487 kts 167°
2026-05-04 18:56 39.75161 29.17259 39055 ft 485 kts 160°
2026-05-04 18:56 39.68853 29.20302 39058 ft 482 kts 159°
2026-05-04 18:57 39.63655 29.22879 39059 ft 481 kts 159°
2026-05-04 18:57 39.57403 29.25974 39062 ft 481 kts 159°
2026-05-04 18:58 39.51167 29.29039 39054 ft 480 kts 159°
2026-05-04 18:58 39.44899 29.32104 39053 ft 482 kts 160°
2026-05-04 18:59 39.38617 29.35169 39053 ft 482 kts 160°
2026-05-04 18:59 39.32375 29.38208 39053 ft 482 kts 160°
2026-05-04 19:00 39.26091 29.41263 39055 ft 484 kts 160°
2026-05-04 19:00 39.19773 29.44328 39056 ft 485 kts 160°
2026-05-04 19:01 39.13453 29.47389 39049 ft 485 kts 160°
2026-05-04 19:01 39.07138 29.50442 39041 ft 485 kts 160°
2026-05-04 19:02 39.00842 29.53479 39045 ft 482 kts 160°
2026-05-04 19:02 38.94576 29.56497 39046 ft 480 kts 160°
2026-05-04 19:03 38.88340 29.59494 39043 ft 479 kts 160°
2026-05-04 19:03 38.82095 29.62489 39043 ft 479 kts 160°
2026-05-04 19:04 38.75891 29.65619 39039 ft 479 kts 154°
2026-05-04 19:04 38.70201 29.70069 39035 ft 480 kts 147°
2026-05-04 19:05 38.64693 29.74900 39034 ft 480 kts 145°
2026-05-04 19:05 38.59217 29.79799 39032 ft 480 kts 145°
2026-05-04 19:06 38.53726 29.84682 39029 ft 482 kts 146°
2026-05-04 19:06 38.48204 29.89554 39022 ft 483 kts 146°
2026-05-04 19:07 38.42674 29.94429 39025 ft 483 kts 146°
2026-05-04 19:07 38.37186 29.99270 39026 ft 483 kts 146°
2026-05-04 19:08 38.31658 30.04139 39026 ft 483 kts 146°
2026-05-04 19:08 38.26106 30.09019 39030 ft 486 kts 146°
2026-05-04 19:09 38.20535 30.13908 39031 ft 486 kts 146°
2026-05-04 19:09 38.14978 30.18775 39026 ft 480 kts 146°
2026-05-04 19:10 38.12264 30.21148 39030 ft 466 kts 146°
2026-05-04 19:10 38.09632 30.23449 39033 ft 452 kts 146°
2026-05-04 19:10 38.07082 30.25676 39032 ft 438 kts 146°
2026-05-04 19:10 38.04609 30.27833 38935 ft 427 kts 146°
2026-05-04 19:11 38.02152 30.29980 38161 ft 433 kts 144°
2026-05-04 19:11 37.99711 30.32292 37076 ft 442 kts 142°
2026-05-04 19:11 37.97264 30.34721 35950 ft 451 kts 141°
2026-05-04 19:11 37.94775 30.37204 34969 ft 457 kts 141°
2026-05-04 19:12 37.92279 30.39691 34245 ft 456 kts 141°
2026-05-04 19:12 37.87099 30.44227 32705 ft 452 kts 158°
2026-05-04 19:12 37.84077 30.45187 32019 ft 446 kts 177°
2026-05-04 19:13 37.81059 30.44941 31308 ft 438 kts 196°
2026-05-04 19:13 37.78285 30.43531 30626 ft 427 kts 217°
2026-05-04 19:13 37.75939 30.41291 29899 ft 420 kts 224°
2026-05-04 19:13 37.73687 30.38947 29089 ft 418 kts 223°
2026-05-04 19:14 37.71396 30.36696 28386 ft 415 kts 221°
2026-05-04 19:14 37.69083 30.34549 27797 ft 410 kts 219°
2026-05-04 19:14 37.66801 30.32509 27224 ft 405 kts 219°
2026-05-04 19:14 37.64498 30.30496 26639 ft 400 kts 218°
2026-05-04 19:15 37.62154 30.28553 26098 ft 396 kts 212°
2026-05-04 19:15 37.59626 30.27341 25575 ft 397 kts 194°
2026-05-04 19:15 37.56901 30.26808 24985 ft 395 kts 189°
2026-05-04 19:15 37.54199 30.26441 24419 ft 393 kts 188°
2026-05-04 19:16 37.51485 30.26091 23870 ft 390 kts 188°
2026-05-04 19:16 37.48804 30.25740 23273 ft 387 kts 188°
2026-05-04 19:16 37.46138 30.25384 22618 ft 384 kts 188°
2026-05-04 19:16 37.43491 30.25026 21963 ft 381 kts 188°
2026-05-04 19:17 37.40873 30.24669 21340 ft 377 kts 188°
2026-05-04 19:17 37.38271 30.24313 20724 ft 374 kts 188°
2026-05-04 19:17 37.35692 30.23959 20171 ft 372 kts 188°
2026-05-04 19:17 37.33123 30.23606 19922 ft 371 kts 188°
2026-05-04 19:18 37.30561 30.23255 19680 ft 371 kts 188°
2026-05-04 19:18 37.27994 30.22902 19432 ft 370 kts 188°
2026-05-04 19:18 37.25447 30.22553 19194 ft 368 kts 188°
2026-05-04 19:18 37.22903 30.22204 18941 ft 367 kts 188°
2026-05-04 19:19 37.20370 30.21857 18706 ft 365 kts 188°
2026-05-04 19:19 37.17855 30.21519 18466 ft 363 kts 187°
2026-05-04 19:19 37.15336 30.21629 18233 ft 364 kts 167°
2026-05-04 19:19 37.13049 30.22890 17957 ft 358 kts 141°
2026-05-04 19:20 37.11431 30.25158 17744 ft 342 kts 114°
2026-05-04 19:20 37.10681 30.27864 17609 ft 320 kts 94°
2026-05-04 19:20 37.10394 30.30562 17479 ft 306 kts 89°
2026-05-04 19:20 37.10449 30.33148 17292 ft 288 kts 71°
2026-05-04 19:21 37.11190 30.35374 17040 ft 271 kts 48°
2026-05-04 19:21 37.12515 30.36970 16781 ft 260 kts 26°
2026-05-04 19:21 37.14145 30.37775 16526 ft 254 kts
2026-05-04 19:21 37.15889 30.38097 16274 ft 254 kts
2026-05-04 19:22 37.17643 30.38316 16024 ft 253 kts
2026-05-04 19:22 37.19398 30.38528 15770 ft 253 kts
2026-05-04 19:22 37.21131 30.38744 15528 ft 252 kts
2026-05-04 19:22 37.22878 30.38969 15285 ft 252 kts
2026-05-04 19:23 37.24622 30.39197 15040 ft 252 kts
2026-05-04 19:23 37.26371 30.39429 14796 ft 252 kts
2026-05-04 19:23 37.28116 30.39661 14554 ft 252 kts
2026-05-04 19:23 37.29860 30.39894 14311 ft 252 kts
2026-05-04 19:24 37.31607 30.40129 14077 ft 253 kts
2026-05-04 19:24 37.33351 30.40363 13831 ft 252 kts
2026-05-04 19:24 37.35100 30.40598 13576 ft 252 kts
2026-05-04 19:24 37.36837 30.40831 13321 ft 251 kts
2026-05-04 19:25 37.38575 30.41065 13047 ft 251 kts
2026-05-04 19:25 37.40308 30.41298 12777 ft 250 kts
2026-05-04 19:25 37.42026 30.41529 12525 ft 246 kts
2026-05-04 19:25 37.43713 30.41757 12321 ft 242 kts
2026-05-04 19:26 37.45383 30.41982 12188 ft 242 kts
2026-05-04 19:26 37.47066 30.42208 12092 ft 244 kts
2026-05-04 19:26 37.48749 30.42435 11990 ft 243 kts
2026-05-04 19:26 37.50422 30.42660 11889 ft 241 kts
2026-05-04 19:27 37.52089 30.42886 11806 ft 240 kts
2026-05-04 19:27 37.53757 30.43110 11750 ft 241 kts
2026-05-04 19:27 37.55427 30.43359 11703 ft 243 kts
2026-05-04 19:27 37.57038 30.44011 11648 ft 245 kts 24°
2026-05-04 19:28 37.58364 30.45368 11599 ft 250 kts 47°
2026-05-04 19:28 37.59161 30.47299 11549 ft 258 kts 71°
2026-05-04 19:28 37.59313 30.49605 11502 ft 264 kts 88°
2026-05-04 19:28 37.59045 30.51879 11451 ft 269 kts 103°
2026-05-04 19:29 37.58167 30.53978 11400 ft 275 kts 128°
2026-05-04 19:29 37.56648 30.55439 11339 ft 278 kts 156°
2026-05-04 19:29 37.54773 30.55929 11289 ft 275 kts 181°
2026-05-04 19:29 37.52872 30.55767 11236 ft 274 kts 188°
2026-05-04 19:30 37.50968 30.55478 11183 ft 277 kts 189°
2026-05-04 19:30 37.49049 30.55178 11139 ft 279 kts 189°
2026-05-04 19:30 37.47126 30.54888 11075 ft 277 kts 188°
2026-05-04 19:30 37.45212 30.54610 11050 ft 277 kts 189°
2026-05-04 19:31 37.43288 30.54334 11031 ft 279 kts 188°
2026-05-04 19:31 37.41352 30.54061 11001 ft 280 kts 188°
2026-05-04 19:31 37.39423 30.53791 10975 ft 279 kts 188°
2026-05-04 19:31 37.37495 30.53521 10937 ft 278 kts 188°
2026-05-04 19:32 37.35579 30.53255 10924 ft 275 kts 188°
2026-05-04 19:32 37.33685 30.52992 10898 ft 273 kts 189°
2026-05-04 19:32 37.31795 30.52729 11010 ft 273 kts 188°
2026-05-04 19:32 37.29915 30.52468 11137 ft 271 kts 188°
2026-05-04 19:33 37.28038 30.52207 11200 ft 272 kts 188°
2026-05-04 19:33 37.26153 30.51945 11208 ft 273 kts 188°
2026-05-04 19:33 37.24293 30.51687 11203 ft 272 kts 188°
2026-05-04 19:33 37.22395 30.51521 11205 ft 275 kts 179°
2026-05-04 19:34 37.20541 30.52106 11201 ft 278 kts 151°
2026-05-04 19:34 37.19118 30.53686 11204 ft 273 kts 121°
2026-05-04 19:34 37.18442 30.55861 11206 ft 267 kts 97°
2026-05-04 19:34 37.18207 30.58164 11206 ft 267 kts 92°
2026-05-04 19:35 37.18048 30.60485 11203 ft 268 kts 90°
2026-05-04 19:35 37.17892 30.62820 11189 ft 268 kts 91°
2026-05-04 19:35 37.17726 30.65150 11190 ft 268 kts 92°
2026-05-04 19:35 37.17555 30.67470 11198 ft 268 kts 91°
2026-05-04 19:36 37.17379 30.69796 11189 ft 268 kts 91°
2026-05-04 19:36 37.17198 30.72123 11206 ft 268 kts 93°
2026-05-04 19:36 37.16835 30.74416 11184 ft 269 kts 106°
2026-05-04 19:36 37.16128 30.76599 11193 ft 271 kts 112°
2026-05-04 19:37 37.15335 30.78753 11188 ft 273 kts 112°
2026-05-04 19:37 37.14541 30.80876 11198 ft 273 kts 112°
2026-05-04 19:37 37.13736 30.83032 11198 ft 273 kts 112°
2026-05-04 19:37 37.12936 30.85182 11157 ft 272 kts 112°
2026-05-04 19:38 37.12135 30.87337 10992 ft 272 kts 112°
2026-05-04 19:38 37.11341 30.89480 10871 ft 272 kts 111°
2026-05-04 19:38 37.10543 30.91633 10761 ft 272 kts 112°
2026-05-04 19:38 37.09748 30.93777 10639 ft 270 kts 113°
2026-05-04 19:39 37.08967 30.95872 10528 ft 268 kts 114°
2026-05-04 19:39 37.07840 30.97920 10417 ft 309 kts 134°
2026-05-04 19:39 37.05914 30.99461 10293 ft 353 kts 158°
2026-05-04 19:39 37.03481 31.00495 10154 ft 376 kts 170°
2026-05-04 19:40 37.00957 31.00499 10035 ft 353 kts 193°
2026-05-04 19:40 36.98649 30.99737 9929 ft 334 kts 200°
2026-05-04 19:40 36.96504 30.98834 9816 ft 317 kts 201°
2026-05-04 19:40 36.94477 30.97930 9689 ft 302 kts 201°
2026-05-04 19:41 36.92540 30.97050 9561 ft 293 kts 202°
2026-05-04 19:41 36.90614 30.96167 9360 ft 296 kts 202°
2026-05-04 19:41 36.88673 30.95276 9088 ft 296 kts 202°
2026-05-04 19:41 36.86741 30.94389 8822 ft 296 kts 202°
2026-05-04 19:42 36.84809 30.93504 8572 ft 296 kts 202°
2026-05-04 19:42 36.82824 30.92867 8323 ft 293 kts 190°
2026-05-04 19:42 36.80813 30.92594 8043 ft 290 kts 187°
2026-05-04 19:42 36.78798 30.92397 7646 ft 291 kts 186°
2026-05-04 19:43 36.76778 30.92210 7335 ft 287 kts 186°
2026-05-04 19:43 36.74857 30.92030 7264 ft 274 kts 186°
2026-05-04 19:43 36.73003 30.91853 7176 ft 262 kts 186°
2026-05-04 19:43 36.71212 30.91680 6925 ft 257 kts 186°
2026-05-04 19:44 36.69408 30.91503 6511 ft 262 kts 186°
2026-05-04 19:44 36.67601 30.91328 6249 ft 260 kts 186°
2026-05-04 19:44 36.65814 30.91119 5996 ft 255 kts 193°
2026-05-04 19:44 36.64213 30.90297 5629 ft 246 kts 225°
2026-05-04 19:45 36.63226 30.88670 5359 ft 232 kts 249°
2026-05-04 19:45 36.62544 30.86860 5106 ft 227 kts 253°
2026-05-04 19:45 36.62077 30.85049 4924 ft 213 kts 270°
2026-05-04 19:45 36.62273 30.83312 4646 ft 198 kts 301°
2026-05-04 19:46 36.63126 30.82042 4315 ft 192 kts 325°
2026-05-04 19:46 36.64260 30.81145 4001 ft 191 kts 332°
2026-05-04 19:46 36.65407 30.80351 3891 ft 187 kts 332°
2026-05-04 19:46 36.66544 30.79569 3682 ft 186 kts 332°
2026-05-04 19:47 36.67293 30.79049 3544 ft 186 kts 332°
2026-05-04 19:47 36.68424 30.78256 3352 ft 187 kts 331°
2026-05-04 19:47 36.69552 30.77460 3150 ft 186 kts 331°
2026-05-04 19:47 36.70734 30.76837 2993 ft 184 kts 348°
2026-05-04 19:48 36.72015 30.76801 2986 ft 187 kts
2026-05-04 19:48 36.73306 30.77032 2985 ft 187 kts
2026-05-04 19:48 36.74604 30.77214 2966 ft 188 kts
2026-05-04 19:48 36.75910 30.77344 2759 ft 187 kts
2026-05-04 19:49 36.77173 30.77496 2513 ft 178 kts
2026-05-04 19:49 36.78352 30.77665 2257 ft 162 kts
2026-05-04 19:49 36.79399 30.77807 2052 ft 143 kts
2026-05-04 19:49 36.80331 30.77932 1849 ft 128 kts
2026-05-04 19:50 36.81199 30.78051 1690 ft 124 kts
2026-05-04 19:50 36.82055 30.78172 1518 ft 124 kts
2026-05-04 19:50 36.82914 30.78292 1351 ft 125 kts
2026-05-04 19:50 36.83775 30.78411 1176 ft 124 kts
2026-05-04 19:51 36.84632 30.78529 1000 ft 124 kts
2026-05-04 19:51 36.85485 30.78646 829 ft 123 kts 359°
2026-05-04 19:51 36.86345 30.78764 659 ft 124 kts 358°
2026-05-04 19:51 36.87199 30.78884 494 ft 124 kts 356°
2026-05-04 19:52 36.88048 30.79003 334 ft 121 kts 359°
2026-05-04 19:52 36.88874 30.79115 211 ft 115 kts
2026-05-04 19:52 36.89547 30.79206 202 ft 73 kts
2026-05-04 19:52 36.89884 30.79252 202 ft 35 kts
2026-05-04 19:53 36.90130 30.79286 196 ft 35 kts
2026-05-04 19:53 36.90349 30.79370 192 ft 30 kts 36°
2026-05-04 19:53 36.90474 30.79489 203 ft 12 kts 55°
2026-05-04 19:53 36.90441 30.79553 202 ft 10 kts 160°
2026-05-04 19:54 36.90405 30.79615 202 ft 9 kts 115°
2026-05-04 19:54 36.90355 30.79637 196 ft 8 kts 189°
2026-05-04 19:54 36.90297 30.79628 194 ft 8 kts 187°
2026-05-04 19:54 36.90238 30.79620 200 ft 9 kts 186°
2026-05-04 19:55 36.90174 30.79612 206 ft 10 kts 186°
2026-05-04 19:55 36.90100 30.79601 197 ft 12 kts 186°
2026-05-04 19:55 36.90014 30.79590 197 ft 13 kts 186°
2026-05-04 19:55 36.89919 30.79577 207 ft 14 kts 186°
2026-05-04 19:56 36.89816 30.79553 207 ft 16 kts 192°
2026-05-04 19:56 36.89703 30.79537 195 ft 16 kts 186°
2026-05-04 19:56 36.89651 30.79627 195 ft 15 kts 96°
2026-05-04 19:56 36.89639 30.79763 195 ft 16 kts 96°
2026-05-04 19:57 36.89647 30.79895 196 ft 13 kts 43°
2026-05-04 19:57 36.89733 30.79913 203 ft 12 kts
2026-05-04 19:57 36.89782 30.79952 198 ft 8 kts 80°
2026-05-04 19:57 36.89783 30.80018 195 ft 7 kts 88°
2026-05-04 19:58 36.89783 30.80023 195 ft 0 kts 88°
2026-05-04 19:58 36.89783 30.80017 195 ft 0 kts 88°